VA3PPY Weather Reports


time (UTC)temp
F
wind
direction
speed
knots
gust
knots
rain 1hr
in
rain 24hr
in
rain mn
in
humidity
%
barometer
mb
20260905100005 62 43 0.0 0.0 0.00 0.01 0.00 93 1013.4
20260905094504 63 43 0.0 0.0 0.00 0.01 0.00 93 1013.6
20260905093004 63 43 0.0 0.0 0.00 0.01 0.00 93 1013.4
20260905091504 63 43 0.0 0.0 0.00 0.01 0.00 93 1013.3
20260905090004 64 43 0.0 0.0 0.00 0.01 0.00 93 1013.2
20260905084504 64 43 0.0 0.0 0.00 0.01 0.00 93 1013.5
20260905083004 64 43 0.0 0.0 0.00 0.01 0.00 93 1013.5
20260905081505 64 43 0.0 0.0 0.00 0.01 0.00 93 1013.2
20260905080005 64 43 0.0 0.0 0.00 0.01 0.00 93 1013.1
20260905074505 64 43 0.0 0.0 0.00 0.01 0.00 93 1013.0
20260905073006 64 43 0.0 0.0 0.00 0.01 0.00 94 1012.9
20260905071505 64 43 0.0 0.0 0.00 0.01 0.00 94 1012.8
20260905070012 65 43 0.0 0.0 0.00 0.01 0.00 94 1012.9
20260905064505 65 43 0.0 0.0 0.00 0.01 0.00 94 1013.0
20260905063005 65 43 0.0 0.0 0.00 0.01 0.00 94 1013.1
20260905061506 65 43 0.0 0.0 0.00 0.01 0.00 93 1013.1
20260905060005 65 43 0.0 0.0 0.00 0.01 0.00 93 1013.2
20260905054505 65 43 0.0 0.0 0.00 0.01 0.00 93 1013.2
20260905053005 65 43 0.0 0.0 0.00 0.01 0.00 92 1013.2
20260905051515 66 43 0.0 0.0 0.00 0.01 0.00 92 1013.3
20260905050006 65 43 0.0 0.0 0.00 0.01 0.00 91 1013.5
20260905044508 65 43 0.0 0.0 0.00 0.01 0.00 91 1013.3
20260905043005 65 43 0.0 0.0 0.00 0.01 0.00 91 1013.4
20260905041506 66 43 0.0 0.0 0.00 0.01 0.00 92 1013.4
20260905040007 66 43 0.0 0.0 0.00 0.01 0.00 93 1013.4
20260905034510 67 43 0.0 0.0 0.00 0.01 0.01 94 1013.4
20260905033007 67 43 0.0 0.0 0.00 0.01 0.01 94 1013.5
20260905031507 68 43 0.0 0.0 0.00 0.01 0.01 94 1013.5
20260905030007 68 43 0.0 0.0 0.00 0.01 0.01 94 1013.6
20260905024508 67 43 0.0 0.0 0.00 0.01 0.01 94 1013.9
20260905023006 66 43 0.0 0.0 0.00 0.01 0.01 94 1014.0
20260905021505 66 43 0.0 0.0 0.00 0.01 0.01 93 1014.0
20260905020009 66 43 0.0 0.0 0.00 0.01 0.01 93 1013.8
20260905014507 66 43 0.0 0.0 0.00 0.01 0.01 92 1013.7
20260905013010 66 43 0.0 0.0 0.00 0.01 0.01 92 1013.6
20260905011513 66 43 0.0 0.0 0.00 0.01 0.01 91 1013.4
20260905010007 67 43 0.0 0.0 0.00 0.01 0.01 91 1013.6
20260905004506 67 43 0.0 0.0 0.00 0.01 0.01 90 1013.3
20260905003010 68 43 0.0 0.0 0.00 0.01 0.01 89 1013.0
20260905001510 68 43 0.0 0.0 0.00 0.01 0.01 89 1012.9
20260905000007 69 43 0.0 0.0 0.00 0.01 0.01 89 1012.9
20260904234506 70 43 0.0 0.0 0.00 0.01 0.01 88 1012.9
20260904233007 70 43 0.0 0.0 0.00 0.01 0.01 89 1013.1
20260904231510 71 43 0.0 0.0 0.00 0.01 0.01 90 1013.1
20260904230019 71 43 0.0 0.0 0.00 0.01 0.01 89 1012.9
20260904224506 71 43 0.0 0.0 0.00 0.01 0.01 88 1012.8
20260904223007 71 43 0.0 0.0 0.00 0.01 0.01 89 1012.8
20260904221507 71 43 0.0 0.0 0.00 0.01 0.01 88 1012.7
20260904220007 71 43 0.0 0.0 0.00 0.01 0.01 87 1012.4
20260904214507 72 43 0.9 2.6 0.00 0.08 0.01 87 1012.3
20260904213007 72 43 0.0 2.6 0.00 0.08 0.01 88 1012.0
20260904211510 72 43 0.0 1.7 0.00 0.08 0.01 88 1011.9
20260904210017 72 43 0.9 3.5 0.00 0.08 0.01 89 1012.0
20260904204507 73 354 0.0 1.7 0.00 0.28 0.01 89 1012.1
20260904203007 72 354 0.0 4.3 0.00 0.28 0.01 89 1012.2
20260904201507 73 348 0.0 3.5 0.00 0.28 0.01 89 1012.3
20260904200020 73 1 0.9 3.5 0.00 0.28 0.01 90 1012.2
20260904194507 72 1 0.0 4.3 0.00 0.30 0.01 90 1012.2
20260904193008 72 359 0.9 3.5 0.00 0.30 0.01 90 1012.3
20260904191514 73 3 0.9 3.5 0.00 0.30 0.01 90 1012.6
20260904190009 74 25 0.0 3.5 0.00 0.30 0.01 89 1012.7
20260904184509 73 352 0.0 3.5 0.00 0.30 0.01 91 1012.4
20260904183008 73 6 0.0 3.5 0.00 0.30 0.01 91 1012.6
20260904181509 74 160 0.0 3.5 0.00 0.30 0.01 89 1012.9
20260904180008 73 159 0.0 1.7 0.00 0.30 0.01 89 1013.1
20260904174511 73 159 0.0 1.7 0.00 0.30 0.01 91 1013.1
20260904173012 73 159 0.0 2.6 0.00 0.30 0.01 91 1013.4
20260904171507 72 160 0.9 2.6 0.00 0.30 0.01 93 1013.4
20260904170008 71 160 0.0 0.9 0.00 0.30 0.01 94 1013.7
20260904164509 70 160 0.0 2.6 0.00 0.30 0.01 95 1014.1
20260904163008 70 160 0.0 2.6 0.00 0.30 0.01 95 1014.2
20260904161510 69 160 0.0 1.7 0.00 0.30 0.01 96 1014.7
20260904160008 69 160 0.0 2.6 0.00 0.30 0.01 96 1015.0
20260904154509 69 160 0.0 1.7 0.00 0.30 0.01 97 1015.1
20260904153010 69 160 0.0 1.7 0.00 0.30 0.01 97 1015.3
20260904151508 69 160 0.0 1.7 0.00 0.30 0.01 97 1015.0
20260904150009 68 160 0.0 0.0 0.00 0.30 0.01 97 1015.0
20260904144509 68 160 0.0 1.7 0.01 0.30 0.01 98 1015.0
20260904143009 67 160 0.0 3.5 0.01 0.30 0.01 97 1014.7
20260904141509 67 294 0.9 2.6 0.01 0.30 0.01 97 1014.8
20260904140009 67 294 0.0 0.9 0.01 0.30 0.01 97 1014.9
20260904134508 66 294 0.0 0.0 0.00 0.28 0.00 98 1014.8
20260904133009 66 294 0.0 2.6 0.00 0.28 0.00 98 1014.4
20260904131509 66 294 0.0 0.0 0.00 0.28 0.00 97 1014.1
20260904130012 65 294 0.0 0.0 0.00 0.28 0.00 97 1014.1
20260904124509 65 294 0.0 0.0 0.00 0.28 0.00 97 1014.1
20260904123009 65 294 0.0 0.0 0.00 0.28 0.00 97 1014.4
20260904121508 65 294 0.0 0.0 0.00 0.28 0.00 98 1014.4
20260904120011 65 294 0.0 0.0 0.00 0.28 0.00 98 1014.2
20260904114509 65 294 0.0 0.0 0.00 0.28 0.00 97 1013.8
20260904113010 65 294 0.0 0.0 0.00 0.28 0.00 97 1013.9
20260904111509 64 294 0.0 0.0 0.00 0.28 0.00 97 1013.8
20260904110010 64 294 0.0 0.0 0.00 0.28 0.00 97 1013.6
20260904104510 64 294 0.0 0.0 0.00 0.28 0.00 97 1013.4
20260904103010 64 294 0.0 0.0 0.00 0.28 0.00 97 1013.2
20260904101512 65 294 0.0 1.7 0.00 0.28 0.00 97 1013.0